LKKV Weather Reports


time (UTC)temp
F
wind
direction
speed
knots
gust
knots
rain 1hr
in
rain 24hr
in
rain mn
in
humidity
%
barometer
mb
20260507083803 50 240 7.0 0.0 0.00 0.00 0.00 87 1011.0
20260507083210 50 240 7.0 0.0 0.00 0.00 0.00 87 1011.0
20260507081622 50 240 6.1 0.0 0.00 0.00 0.00 93
20260507080903 50 230 6.1 0.0 0.00 0.00 0.00 87 1010.0
20260507080211 52 240 7.0 0.0 0.00 0.00 0.00 87 1010.0
20260507075202 50 240 6.1 0.0 0.00 0.00 0.00 87 1010.0
20260507073304 50 240 5.2 0.0 0.00 0.00 0.00 93 1010.0
20260507071623 50 240 6.1 0.0 0.00 0.00 0.00 87
20260507071402 50 230 6.1 0.0 0.00 0.00 0.00 87 1010.0
20260507070213 50 240 7.0 0.0 0.00 0.00 0.00 87 1010.0
20260507064302 48 240 6.1 0.0 0.00 0.00 0.00 93 1010.0
20260507063210 50 250 7.0 0.0 0.00 0.00 0.00 93 1010.0
20260507061623 48 250 6.1 0.0 0.00 0.00 0.00 99
20260507061511 50 240 7.0 0.0 0.00 0.00 0.00 93 1009.0
20260507060212 48 240 6.1 0.0 0.00 0.00 0.00 93 1009.0
20260507055704 48 250 7.0 0.0 0.00 0.00 0.00 100 1009.0
20260507051622 48 220 4.3 0.0 0.00 0.00 0.00 99
20260507050211 48 210 4.3 0.0 0.00 0.00 0.00 100 1009.0
20260507044511 48 220 4.3 0.0 0.00 0.00 0.00 100 1008.0
20260507041824 50 220 6.1 0.0 0.00 0.00 0.00 93
20260507040210 50 220 5.2 0.0 0.00 0.00 0.00 93 1008.0
20260507031623 50 240 4.3 0.0 0.00 0.00 0.00 93
20260507031603 50 230 5.2 0.0 0.00 0.00 0.00 93 1008.0
20260507030217 50 230 5.2 0.0 0.00 0.00 0.00 93 1008.0
20260507021621 50 230 4.3 0.0 0.00 0.00 0.00 93
20260507020217 50 230 5.2 0.0 0.00 0.00 0.00 93 1008.0
20260507011722 50 230 4.3 0.0 0.00 0.00 0.00 93
20260507010219 50 0 1.7 0.0 0.00 0.00 0.00 93 1008.0
20260507005403 50 0 1.7 0.0 0.00 0.00 0.00 93 1008.0
20260507003903 50 0 1.7 0.0 0.00 0.00 0.00 93 1007.0
20260507001902 50 210 1.7 0.0 0.00 0.00 0.00 93 1008.0
20260507001622 50 260 1.7 0.0 0.00 0.00 0.00 93
20260507000212 50 270 4.3 0.0 0.00 0.00 0.00 93 1007.0
20260506231623 50 300 4.3 0.0 0.00 0.00 0.00 93
20260506230218 50 0 0.9 0.0 0.00 0.00 0.00 93 1007.0
20260506221822 50 220 4.3 0.0 0.00 0.00 0.00 99
20260506220217 50 210 4.3 0.0 0.00 0.00 0.00 100 1007.0
20260506212103 52 210 6.1 0.0 0.00 0.00 0.00 93 1007.0
20260506211623 50 230 6.1 0.0 0.00 0.00 0.00 99
20260506210903 50 190 5.2 0.0 0.00 0.00 0.00 100 1007.0
20260506210211 50 170 1.7 0.0 0.00 0.00 0.00 100 1007.0
20260506201622 50 240 4.3 0.0 0.00 0.00 0.00 99
20260506200217 52 0 1.7 0.0 0.00 0.00 0.00 93 1006.0
20260506191622 54 40 1.7 0.0 0.00 0.00 0.00 76
20260506190224 54 80 2.6 0.0 0.00 0.00 0.00 76 1006.0
20260506183217 57 120 12.2 22.6 0.00 0.00 0.00 67 1005.0
20260506182717 57 120 13.0 22.6 0.00 0.00 0.00 67 1005.0
20260506181623 59 360 1.7 0.0 0.00 0.00 0.00 67
20260506180218 59 10 2.6 0.0 0.00 0.00 0.00 67 1005.0
20260506175602 59 20 2.6 0.0 0.00 0.00 0.00 67 1005.0
20260506173210 61 40 2.6 0.0 0.00 0.00 0.00 59 1005.0
20260506172602 61 20 2.6 0.0 0.00 0.00 0.00 59 1005.0
20260506171622 61 330 4.3 0.0 0.00 0.00 0.00 59
20260506170212 61 360 2.6 0.0 0.00 0.00 0.00 59 1005.0
20260506163210 61 360 2.6 0.0 0.00 0.00 0.00 59 1005.0
20260506161823 63 320 6.1 0.0 0.00 0.00 0.00 55
20260506160219 63 300 6.1 0.0 0.00 0.00 0.00 55 1005.0
20260506153210 63 300 5.2 0.0 0.00 0.00 0.00 55 1005.0
20260506151623 63 360 4.3 0.0 0.00 0.00 0.00 55
20260506150217 63 0 2.6 0.0 0.00 0.00 0.00 55 1006.0
20260506143217 61 300 5.2 0.0 0.00 0.00 0.00 59 1006.0
20260506141623 63 300 6.1 0.0 0.00 0.00 0.00 55
20260506140218 63 290 6.1 0.0 0.00 0.00 0.00 55 1006.0
20260506133217 63 0 1.7 0.0 0.00 0.00 0.00 51 1006.0
20260506131623 63 260 6.1 0.0 0.00 0.00 0.00 55
20260506130212 63 280 4.3 0.0 0.00 0.00 0.00 55 1006.0
20260506123209 61 280 2.6 0.0 0.00 0.00 0.00 59 1006.0
20260506121623 61 250 4.3 0.0 0.00 0.00 0.00 59
20260506120218 61 230 4.3 0.0 0.00 0.00 0.00 59 1007.0
20260506113209 61 250 6.1 0.0 0.00 0.00 0.00 59 1007.0
20260506111622 61 260 6.1 0.0 0.00 0.00 0.00 59
20260506110210 61 230 6.1 0.0 0.00 0.00 0.00 59 1007.0
20260506103209 59 220 6.1 0.0 0.00 0.00 0.00 62 1007.0
20260506101823 57 260 7.8 0.0 0.00 0.00 0.00 67
20260506100214 57 260 5.2 0.0 0.00 0.00 0.00 67 1007.0
20260506093210 57 0 5.2 0.0 0.00 0.00 0.00 71 1007.0
20260506091623 55 270 6.1 0.0 0.00 0.00 0.00 71
20260506090212 55 270 7.8 0.0 0.00 0.00 0.00 76 1007.0